Stafford, VA

10:59 AM EDT on March 25, 2017 (GMT -0400)
Stafford

Weather History for KRMN - March, 2014

Change the Weather History Date:

Wednesday, March 5, 2014

  Actual Average (KNYG) Record (KNYG)
Temperature  
Mean Temperature 30 °F -  
Max Temperature 44 °F 49 °F 77 °F (2004)
Min Temperature 16 °F 32 °F 16 °F (2002)
Degree Days  
Heating Degree Days 36    
Moisture  
Dew Point 16 °F    
Average Humidity 60    
Maximum Humidity 91    
Minimum Humidity 33    
Precipitation  
Precipitation 0.00 in - - ()
Sea Level Pressure  
Sea Level Pressure 30.29 in    
Wind  
Wind Speed 1 mph (NE)    
Max Wind Speed 8 mph    
Max Gust Speed -    
Visibility 10 miles    
Events      
Averages and records for this station are not official NWS values.
T = Trace of Precipitation, MM = Missing Value Source: NWS Daily Summary

Daily Weather History Graph

Daily Weather History Graph

Search for Another Location

Airport or City:

Trip Planner

Search our weather history database for the weather conditions in past years. The results will help you decide how hot, cold, wet, or windy it might be!

Date:

Astronomy

Mar. 05, 2014 Rise Set
Actual Time 6:36 AM EST 6:07 PM EST
Civil Twilight 6:09 AM EST 6:33 PM EST
Nautical Twilight 5:39 AM EST 7:04 PM EST
Astronomical Twilight 5:08 AM EST 7:34 PM EST
Moon 9:04 AM EST (3/5) 11:09 PM EST (3/5)
Length of Visible Light 12h 23m
Length of Day
11h 30m
Waxing Crescent, 23% of the Moon is Illuminated
Mar 5
Waxing Crescent
Mar 8
First Quarter
Mar 16
Full
Mar 23
Last Quarter
Mar 30
New

Hourly Weather History & Observations

Time (EST) Temp. Windchill Dew Point Humidity Pressure Visibility Wind Dir Wind Speed Gust Speed Precip Events Conditions
12:15 AM 19.9 °F - 14.2 °F 78% 30.28 in 10.0 mi Calm Calm - N/A   Clear
12:35 AM 20.1 °F - 13.8 °F 77% 30.27 in 10.0 mi Calm Calm - N/A   Clear
12:55 AM 19.0 °F - 15.8 °F 87% 30.27 in 10.0 mi Calm Calm - N/A   Clear
1:15 AM 19.4 °F - 14.2 °F 80% 30.27 in 10.0 mi Calm Calm - N/A   Clear
1:35 AM 18.5 °F - 15.8 °F 89% 30.27 in 10.0 mi Calm Calm - N/A   Clear
1:55 AM 19.2 °F - 14.4 °F 81% 30.26 in 10.0 mi Calm Calm - N/A   Clear
2:15 AM 18.9 °F - 14.9 °F 85% 30.26 in 10.0 mi Calm Calm - N/A   Clear
2:30 AM 18.3 °F - 15.6 °F 89% 30.26 in 10.0 mi Calm Calm - N/A   Clear
2:55 AM 18.1 °F - 14.7 °F 86% 30.26 in 10.0 mi Calm Calm - N/A   Clear
3:15 AM 18.5 °F - 14.4 °F 84% 30.25 in 10.0 mi Calm Calm - N/A   Clear
3:35 AM 17.6 °F - 14.5 °F 88% 30.26 in 10.0 mi Calm Calm - N/A   Clear
3:55 AM 17.6 °F - 15.3 °F 91% 30.26 in 10.0 mi Calm Calm - N/A   Clear
4:15 AM 18.1 °F - 14.5 °F 86% 30.25 in 10.0 mi Calm Calm - N/A   Clear
4:35 AM 17.8 °F 10.9 °F 13.3 °F 83% 30.26 in 10.0 mi NW 4.6 mph - N/A   Clear
4:55 AM 17.6 °F 10.7 °F 13.5 °F 84% 30.27 in 10.0 mi NW 4.6 mph - N/A   Clear
5:15 AM 18.0 °F 12.7 °F 13.5 °F 83% 30.27 in 10.0 mi NW 3.5 mph - N/A   Clear
5:35 AM 18.3 °F 13.1 °F 13.1 °F 80% 30.27 in 10.0 mi NW 3.5 mph - N/A   Clear
5:55 AM 17.6 °F 12.3 °F 12.7 °F 81% 30.28 in 10.0 mi WNW 3.5 mph - N/A   Clear
6:15 AM 17.2 °F - 12.9 °F 83% 30.28 in 10.0 mi Calm Calm - N/A   Clear
6:35 AM 16.2 °F - 12.7 °F 86% 30.27 in 10.0 mi Calm Calm - N/A   Clear
6:55 AM 16.2 °F - 13.1 °F 88% 30.29 in 10.0 mi Calm Calm - N/A   Clear
7:10 AM 16.5 °F - 12.6 °F 84% 30.28 in 10.0 mi Calm Calm - N/A   Clear
7:35 AM 16.5 °F - 13.3 °F 87% 30.28 in 10.0 mi Calm Calm - N/A   Clear
7:55 AM 19.2 °F - 13.6 °F 79% 30.30 in 10.0 mi Calm Calm - N/A   Clear
8:15 AM 21.2 °F - 13.8 °F 73% 30.30 in 10.0 mi Calm Calm - N/A   Clear
8:35 AM 23.4 °F - 13.6 °F 66% 30.30 in 10.0 mi Calm Calm - N/A   Clear
8:55 AM 25.2 °F - 14.4 °F 64% 30.30 in 10.0 mi Calm Calm - N/A   Clear
9:15 AM 28.8 °F 25.0 °F 15.3 °F 57% 30.30 in 10.0 mi NNE 3.5 mph - N/A   Clear
9:35 AM 30.2 °F 25.4 °F 13.1 °F 49% 30.30 in 10.0 mi NNE 4.6 mph - N/A   Clear
9:55 AM 31.6 °F - 14.0 °F 48% 30.30 in 10.0 mi Calm Calm - N/A   Clear
10:15 AM 32.0 °F - 13.6 °F 47% 30.30 in 10.0 mi Calm Calm - N/A   Clear
10:35 AM 33.6 °F 29.4 °F 14.4 °F 45% 30.30 in 10.0 mi NNW 4.6 mph - N/A   Clear
10:55 AM 34.7 °F 31.8 °F 13.8 °F 42% 30.29 in 10.0 mi North 3.5 mph - N/A   Clear
11:15 AM 36.1 °F 31.4 °F 13.6 °F 40% 30.29 in 10.0 mi NNW 5.8 mph - N/A   Clear
11:35 AM 37.9 °F - 14.0 °F 38% 30.28 in 10.0 mi Calm Calm - N/A   Clear
11:55 AM 38.8 °F - 13.8 °F 36% 30.28 in 10.0 mi Calm Calm - N/A   Clear
12:15 PM 39.9 °F 34.5 °F 14.4 °F 35% 30.27 in 10.0 mi ENE 8.1 mph - N/A   Clear
12:35 PM 40.6 °F 36.7 °F 14.4 °F 34% 30.26 in 10.0 mi NE 5.8 mph - N/A   Clear
12:55 PM 41.2 °F 38.2 °F 14.0 °F 33% 30.26 in 10.0 mi NE 4.6 mph - N/A   Clear
1:15 PM 42.3 °F 39.4 °F 15.6 °F 34% 30.25 in 10.0 mi NNE 4.6 mph - N/A   Clear
1:35 PM 42.8 °F 41.1 °F 15.1 °F 33% 30.24 in 10.0 mi North 3.5 mph - N/A   Clear
1:55 PM 43.0 °F 41.3 °F 16.9 °F 35% 30.24 in 10.0 mi East 3.5 mph - N/A   Clear
2:15 PM 43.2 °F 40.5 °F 17.4 °F 36% 30.24 in 10.0 mi ENE 4.6 mph - N/A   Clear
2:35 PM 42.8 °F 40.1 °F 17.8 °F 37% 30.24 in 10.0 mi ENE 4.6 mph - N/A   Clear
2:55 PM 43.0 °F 39.5 °F 17.8 °F 36% 30.24 in 10.0 mi East 5.8 mph - N/A   Clear
3:15 PM 43.7 °F 39.7 °F 17.6 °F 35% 30.23 in 10.0 mi East 6.9 mph - N/A   Clear
3:35 PM 43.3 °F 39.9 °F 18.3 °F 37% 30.23 in 10.0 mi East 5.8 mph - N/A   Clear
3:55 PM 43.9 °F 41.3 °F 17.8 °F 35% 30.23 in 10.0 mi East 4.6 mph - N/A   Clear
4:15 PM 43.7 °F 41.1 °F 19.2 °F 38% 30.23 in 10.0 mi East 4.6 mph - N/A   Clear
4:35 PM 43.9 °F 42.3 °F 16.5 °F 33% 30.23 in 10.0 mi ESE 3.5 mph - N/A   Clear
4:55 PM 43.7 °F 39.7 °F 18.5 °F 36% 30.24 in 10.0 mi East 6.9 mph - N/A   Clear
5:15 PM 43.3 °F - 17.4 °F 35% 30.25 in 10.0 mi Calm Calm - N/A   Clear
5:35 PM 42.4 °F 39.6 °F 17.4 °F 37% 30.27 in 10.0 mi NE 4.6 mph - N/A   Clear
5:55 PM 42.8 °F - 15.6 °F 33% 30.28 in 10.0 mi Calm Calm - N/A   Clear
6:15 PM 41.9 °F - 15.6 °F 35% 30.30 in 10.0 mi Calm Calm - N/A   Clear
6:35 PM 40.1 °F - 18.1 °F 41% 30.31 in 10.0 mi Calm Calm - N/A   Clear
6:55 PM 34.5 °F - 22.1 °F 61% 30.32 in 10.0 mi Calm Calm - N/A   Clear
7:15 PM 33.1 °F - 22.6 °F 66% 30.33 in 10.0 mi Calm Calm - N/A   Clear
7:35 PM 32.9 °F - 22.6 °F 66% 30.34 in 10.0 mi Calm Calm - N/A   Clear
7:55 PM 35.1 °F 30.1 °F 19.9 °F 54% 30.35 in 10.0 mi East 5.8 mph - N/A   Clear
8:15 PM 35.6 °F 32.8 °F 19.2 °F 51% 30.35 in 10.0 mi ENE 3.5 mph - N/A   Clear
8:35 PM 34.7 °F 31.8 °F 19.4 °F 54% 30.35 in 10.0 mi ENE 3.5 mph - N/A   Clear
8:55 PM 34.7 °F - 19.4 °F 54% 30.35 in 10.0 mi Calm Calm - N/A   Clear
9:15 PM 33.8 °F - 18.7 °F 54% 30.36 in 10.0 mi Calm Calm - N/A   Clear
9:35 PM 30.0 °F - 21.7 °F 71% 30.38 in 10.0 mi Calm Calm - N/A   Clear
9:55 PM 28.6 °F - 23.4 °F 81% 30.39 in 10.0 mi Calm Calm - N/A   Clear
10:15 PM 29.3 °F - 21.4 °F 72% 30.40 in 10.0 mi Calm Calm - N/A   Clear
10:35 PM 28.9 °F 21.9 °F 20.1 °F 70% 30.41 in 10.0 mi NNE 6.9 mph - N/A   Clear
10:55 PM 33.6 °F 30.6 °F 16.2 °F 49% 30.42 in 10.0 mi NE 3.5 mph - N/A   Clear
11:15 PM 33.3 °F - 15.3 °F 48% 30.43 in 10.0 mi Calm Calm - N/A   Clear
11:35 PM 32.2 °F 28.9 °F 16.5 °F 53% 30.43 in 10.0 mi North 3.5 mph - N/A   Clear
11:55 PM 32.2 °F - 16.0 °F 51% 30.43 in 10.0 mi Calm Calm - N/A   Clear